Wind_Speed
20 22 23 23 24 28 35 42 41 40 38 31 27 23 20 17 13 13 12 10 11 10 9 8 7 12 16 19 21 20 19 17 17 15 15 17 19 21 22 24 25 22 21 21 22 21 21 21 20 18 15 14
21 22 24 25 24 26 30 34 35 34 30 25 19 16 14 13 14 13 12 11 12 11 10 12 12 14 16 20 22 21 21 19 19 18 17 17 20 21 20 25 26 22 20 20 20 20 20 19 18 16 14 13
20 22 23 20 13 16 23 25 26 24 19 14 12 13 13 14 13 11 11 11 12 12 12 14 15 15 16 20 21 19 18 18 19 19 18 18 19 19 20 26 26 23 20 19 18 18 17 17 17 15 14 14
18 20 14 10 10 16 20 21 23 20 14 11 12 13 13 13 13 12 13 12 12 12 11 11 10 11 14 18 18 15 14 15 16 17 18 16 16 17 23 28 28 25 21 19 18 17 16 16 16 15 15 14
17 18 11 11 12 15 20 21 20 16 15 14 15 14 13 13 13 13 13 13 13 11 10 9 9 11 14 16 16 16 14 14 15 14 15 14 13 16 25 30 29 27 23 21 19 18 17 16 16 15 14 13
16 16 16 17 20 23 24 21 19 18 17 16 17 16 15 15 14 14 14 14 14 12 12 13 14 15 16 16 17 17 14 13 13 12 13 14 12 16 27 31 29 28 26 24 22 20 19 18 17 16 15 14
15 13 17 22 23 26 28 25 22 22 20 17 18 19 18 17 16 16 15 15 14 14 16 17 18 18 18 18 17 18 16 13 12 12 11 11 10 15 26 31 29 27 26 25 24 22 21 19 18 17 16 15
13 13 14 21 25 25 28 29 27 26 24 21 20 21 20 18 18 17 17 16 16 17 19 19 21 20 20 21 20 19 18 16 15 14 11 10 11 14 22 28 28 28 27 26 25 24 22 21 19 18 18 16
10 12 13 14 25 28 29 30 30 30 27 24 23 23 22 20 19 18 18 19 19 20 20 21 22 21 21 24 24 21 19 18 16 15 13 13 13 14 19 23 24 25 25 25 25 23 22 22 20 19 18 17
8 10 12 12 15 24 30 31 32 34 31 27 26 25 24 22 20 20 20 21 21 21 22 22 23 22 22 24 24 21 20 19 16 15 14 15 17 17 19 20 19 20 21 22 22 22 22 21 20 19 19 17
11 9 10 12 12 15 24 32 35 38 36 30 29 28 27 25 22 21 21 21 21 20 22 23 23 23 23 24 23 20 20 19 16 14 15 18 20 20 20 20 19 18 18 19 19 19 20 20 20 19 18 18
15 12 11 13 13 13 16 23 29 37 38 32 30 30 29 26 22 21 21 21 21 21 22 24 25 25 25 25 23 21 19 18 16 15 16 20 22 21 21 21 21 20 19 19 18 18 18 19 19 18 17 17
16 17 15 14 15 14 14 15 20 29 37 31 30 31 30 27 24 24 25 25 25 23 24 26 27 26 26 26 24 22 20 19 18 17 17 20 22 21 21 21 21 22 22 21 20 19 18 18 19 18 17 17
17 21 20 17 17 16 15 13 16 23 33 32 32 33 33 30 28 27 27 27 27 25 25 27 28 29 28 27 25 24 22 20 19 18 17 20 21 21 22 22 22 22 23 23 22 21 20 20 20 19 18 18
17 21 22 21 19 14 15 14 14 20 32 37 37 37 35 33 32 30 29 29 29 27 24 23 27 29 30 29 27 26 25 22 20 20 18 18 20 20 22 23 23 24 24 25 24 23 22 21 21 19 19 19
14 18 20 19 19 15 13 15 13 15 25 35 40 39 37 37 37 33 30 30 31 28 23 22 27 29 29 29 28 27 27 24 23 23 21 20 20 21 22 23 24 24 25 26 26 25 24 23 23 21 20 20
12 14 16 16 15 13 11 12 14 13 15 25 36 41 39 40 39 33 30 30 30 28 25 25 28 29 29 30 30 29 28 27 26 26 25 23 23 23 24 25 25 25 25 27 27 27 27 26 25 24 23 22
12 11 14 15 15 12 11 10 12 14 15 22 32 39 40 40 38 34 32 33 33 31 29 28 29 28 29 31 32 32 30 30 29 28 27 25 24 24 25 27 27 27 27 28 29 29 29 28 28 27 26 25
11 11 12 14 15 13 11 12 13 15 17 22 29 34 37 39 39 38 36 36 35 35 32 30 30 29 29 31 32 32 32 31 30 29 27 26 24 24 25 26 28 28 28 29 29 29 30 30 30 30 29 29
12 11 10 11 13 12 9 10 12 15 18 21 24 28 31 34 37 39 40 39 37 38 35 32 31 30 31 32 32 32 32 32 31 30 29 27 25 24 24 25 26 27 28 28 29 29 30 31 31 32 32 32
15 14 12 11 12 12 9 6 6 8 14 19 22 25 27 30 30 31 36 39 39 39 36 33 33 33 34 34 33 32 32 32 33 32 31 29 27 26 25 24 25 25 26 27 27 28 29 30 31 32 33 33
18 17 15 14 13 12 12 10 7 5 4 11 15 19 24 27 26 25 28 33 36 38 37 37 36 35 36 35 35 34 33 32 34 35 33 31 29 28 26 25 24 24 24 24 25 27 28 29 30 31 32 33
21 19 16 16 15 11 11 13 12 11 8 3 4 8 14 20 23 22 23 26 29 33 36 39 38 37 37 38 38 36 34 33 34 36 36 34 32 30 28 27 25 24 23 23 24 26 27 28 29 30 31 33
27 24 21 20 21 17 14 14 12 12 12 11 8 6 5 10 15 17 20 23 26 28 30 34 37 39 40 40 39 37 36 34 34 36 37 36 33 31 30 29 27 25 23 22 24 26 27 28 29 30 32 33
36 34 32 29 27 25 23 19 15 13 13 12 12 12 11 7 6 9 12 17 22 24 26 28 31 35 39 39 39 37 36 36 36 36 37 37 35 33 32 31 29 26 24 23 24 25 27 29 30 30 31 33
40 38 37 34 30 27 25 23 20 18 16 15 14 14 14 11 9 8 7 9 14 18 21 24 26 28 32 36 38 38 38 39 39 37 37 38 37 35 34 33 31 29 28 26 25 25 26 29 31 31 32 33
38 38 36 35 33 29 26 24 22 20 18 16 15 15 16 14 12 12 12 11 9 10 13 17 21 23 26 30 34 37 39 40 40 40 40 40 38 37 36 35 33 33 31 28 26 24 25 27 28 30 34 35
36 35 34 34 33 32 30 28 25 21 19 17 16 16 17 17 16 15 15 15 13 11 10 11 13 17 21 23 27 32 36 38 39 40 41 40 39 38 38 38 36 34 33 31 28 25 25 24 22 26 31 34
34 34 33 33 33 33 33 33 33 30 28 26 23 21 19 19 20 18 16 16 15 13 12 12 11 12 14 16 19 23 29 34 36 37 38 39 40 40 40 41 39 36 35 35 32 29 28 24 22 24 26 28
31 32 33 34 34 35 35 35 36 35 34 33 29 25 20 18 18 19 18 17 16 14 13 12 12 12 12 13 14 15 18 24 29 33 36 37 39 40 41 41 41 39 38 37 35 34 34 31 27 25 22 23
29 29 31 32 33 33 33 32 32 31 30 30 29 26 22 18 16 16 16 17 16 15 14 13 12 12 12 12 13 14 14 15 18 24 29 33 36 38 39 40 41 41 39 37 38 38 38 38 36 31 25 23
Wind_Direction
297 294 286 274 267 260 231 208 199 186 178 171 167 176 179 184 211 245 240 220 217 218 221 216 206 195 192 195 193 196 200 200 199 191 182 182 189 200 203 193 183 183 188 194 201 206 212 218 220 215 206 200
302 301 296 289 280 251 210 180 173 173 169 164 171 195 204 225 249 244 218 199 201 204 208 211 204 198 202 201 197 203 208 210 207 196 188 186 193 200 197 191 184 181 186 192 198 204 211 215 212 206 197 190
308 311 307 292 268 204 177 161 166 170 169 180 207 227 233 237 237 222 213 213 214 211 211 215 211 208 211 207 204 206 207 212 209 201 200 198 201 200 193 191 186 181 185 191 194 199 205 207 205 200 191 183
314 317 307 244 201 181 182 181 180 180 188 226 241 234 235 232 227 224 226 225 225 223 217 215 206 199 200 202 207 199 191 199 201 202 205 205 204 197 192 192 190 186 185 189 193 196 199 201 201 198 194 188
315 314 289 232 232 222 210 199 192 198 210 232 241 233 224 217 218 217 219 219 220 218 203 187 168 169 174 179 187 181 174 178 184 193 200 207 206 192 191 193 193 189 186 188 191 194 196 198 200 199 198 194
318 302 270 265 268 244 225 215 215 222 222 227 229 224 211 207 209 209 213 212 210 201 185 178 171 172 170 168 174 175 172 171 175 181 189 203 203 190 191 192 193 192 190 191 192 195 198 201 203 202 202 197
335 308 271 268 263 239 225 223 228 232 231 231 225 214 207 207 207 205 208 206 203 194 185 183 182 183 177 176 183 181 177 176 178 183 189 194 188 187 193 193 195 196 195 195 196 198 200 202 207 206 203 200
344 334 295 257 235 224 225 228 234 239 238 233 221 210 205 204 203 202 204 202 199 192 189 188 187 189 183 182 192 191 184 184 185 188 187 179 175 183 192 195 196 198 199 199 201 202 203 204 207 207 204 203
335 338 328 269 233 223 228 234 237 238 239 233 221 211 204 200 201 205 204 199 197 194 193 192 189 191 191 190 199 200 189 189 192 191 183 176 174 177 189 196 200 203 203 202 203 205 206 206 207 207 207 206
314 324 330 313 264 238 233 238 241 241 238 232 222 214 208 206 207 207 205 200 198 197 196 197 196 196 199 201 207 205 195 195 197 198 191 183 179 177 186 196 204 209 208 207 207 208 210 210 210 209 208 207
292 303 309 319 308 276 252 238 236 238 237 233 224 218 215 213 211 207 205 204 202 202 203 204 204 204 205 209 214 211 205 203 200 202 197 190 187 184 187 194 203 210 212 213 212 213 214 215 215 212 211 208
281 280 285 300 309 315 286 250 241 232 226 232 227 220 221 216 214 213 209 209 208 210 212 210 210 211 210 214 220 218 216 212 206 206 201 195 194 192 192 196 201 207 211 214 215 216 217 219 220 217 214 209
278 276 272 280 292 309 310 289 273 236 219 229 227 219 221 218 219 220 215 212 209 212 217 215 214 216 216 219 225 225 224 219 210 209 203 197 198 199 199 202 205 209 212 214 216 217 217 219 220 220 219 214
276 280 276 268 274 294 310 310 297 255 227 226 228 224 222 220 224 225 220 215 211 216 220 218 217 220 221 222 227 229 228 223 216 214 209 203 204 205 204 205 208 212 215 217 218 219 220 219 218 221 221 218
279 281 281 272 265 278 308 310 300 269 237 224 224 224 222 223 227 228 223 217 217 220 222 226 227 224 224 226 230 232 231 227 223 222 220 214 215 216 212 210 210 211 214 216 218 219 220 220 218 219 221 221
292 287 289 280 266 260 289 306 302 279 249 232 224 221 221 224 225 225 223 219 219 221 229 239 236 230 228 230 233 234 234 231 228 228 226 221 223 226 223 221 219 218 218 217 218 219 220 220 219 218 220 223
314 301 300 296 281 259 260 297 309 301 282 256 236 223 221 223 224 225 226 223 221 223 234 243 239 232 230 231 234 235 236 233 231 232 230 228 226 226 226 226 226 225 224 223 222 222 220 220 220 220 221 223
332 321 315 314 310 286 253 265 289 292 291 272 249 232 226 225 225 226 228 226 225 226 233 241 240 235 233 233 233 234 235 235 235 235 236 236 233 229 226 226 227 227 227 228 226 225 224 221 220 221 222 223
354 347 336 330 328 315 274 250 253 261 264 258 250 242 234 228 225 227 229 228 228 229 232 237 238 236 237 238 235 234 235 237 237 238 240 241 239 235 230 227 227 227 229 230 229 228 227 225 223 221 221 221
18 12 3 353 348 339 304 262 244 240 244 246 243 241 237 229 227 229 227 228 231 233 233 235 237 238 241 241 237 235 236 237 239 240 241 243 242 240 237 233 231 230 230 230 231 231 229 228 227 225 224 222
22 24 25 25 18 6 349 311 268 240 232 237 238 238 235 230 233 235 229 230 233 233 235 238 238 239 241 240 238 237 237 237 238 240 241 243 242 241 240 240 239 237 235 233 232 233 232 231 229 228 227 226
22 23 23 28 34 25 13 8 358 343 249 229 232 236 236 233 239 242 237 239 238 235 237 240 240 241 241 241 240 240 240 238 239 240 242 243 244 243 242 243 245 245 244 241 238 236 236 234 232 230 229 228
19 19 17 14 19 23 15 12 10 4 357 324 249 242 242 237 237 238 239 243 242 240 242 241 243 245 245 244 242 242 242 241 241 242 242 243 243 243 243 244 246 248 249 247 244 241 238 236 234 232 230 229
14 12 13 8 5 9 9 5 3 2 4 5 360 355 318 256 241 239 238 239 239 242 245 245 246 246 245 244 244 245 246 246 246 246 246 247 246 245 244 244 244 245 246 248 249 245 241 237 234 232 230 228
14 12 12 10 8 10 12 8 360 351 354 356 359 3 0 337 284 260 247 241 239 239 241 244 248 249 247 246 247 248 249 250 249 248 249 249 249 249 247 246 246 246 244 244 247 247 244 240 236 232 229 228
13 12 11 10 11 12 12 12 8 2 357 351 347 345 342 344 342 330 309 270 247 240 239 240 243 248 249 248 248 248 248 248 247 246 246 246 246 247 248 247 247 248 245 240 241 246 248 246 241 236 232 228
8 8 7 6 6 7 8 9 10 11 10 2 350 338 332 333 335 334 334 327 296 264 251 242 239 242 247 251 251 250 250 249 248 246 245 244 244 245 246 248 248 249 248 240 236 241 248 249 247 243 237 232
2 0 0 0 360 1 3 3 2 3 6 5 0 351 344 341 339 335 329 330 328 312 293 271 251 241 240 246 252 253 252 252 251 250 247 246 245 245 246 248 248 249 250 245 236 235 240 246 249 246 241 237
357 355 354 354 354 355 357 357 356 355 356 357 359 360 357 350 347 345 337 329 328 326 318 304 287 267 248 239 243 250 254 253 252 251 250 248 246 247 249 249 250 252 252 249 241 233 231 234 241 247 248 246
353 352 352 351 351 352 352 352 353 354 354 353 355 358 358 352 345 344 343 337 330 325 322 315 304 291 277 260 249 246 251 256 256 255 252 250 249 249 250 248 249 253 255 250 244 238 233 231 236 249 257 254
350 351 351 350 350 350 348 349 350 350 350 350 351 353 354 353 347 341 338 338 336 330 323 318 311 303 293 281 270 258 251 253 258 262 261 258 256 254 253 249 248 251 252 247 245 243 238 234 234 240 252 257
Height
1497 1496 1494 1493 1492 1492 1489 1484 1485 1487 1489 1494 1497 1498 1499 1500 1502 1503 1504 1505 1507 1507 1507 1508 1510 1511 1513 1515 1517 1518 1518 1518 1519 1519 1520 1520 1520 1519 1519 1520 1520 1521 1522 1522 1523 1524 1526 1527 1528 1530 1532 1533
1497 1495 1492 1490 1488 1488 1487 1483 1485 1490 1492 1496 1498 1499 1499 1499 1500 1502 1502 1503 1505 1506 1507 1507 1509 1509 1510 1513 1515 1516 1517 1518 1518 1518 1518 1519 1519 1519 1520 1520 1519 1520 1521 1522 1523 1524 1526 1527 1528 1530 1532 1532
1496 1494 1491 1489 1486 1487 1489 1488 1489 1492 1496 1498 1498 1499 1500 1499 1500 1501 1502 1503 1504 1506 1507 1507 1508 1508 1507 1510 1513 1514 1515 1516 1517 1518 1517 1517 1517 1518 1519 1519 1519 1520 1520 1521 1522 1524 1526 1527 1529 1530 1531 1532
1496 1495 1494 1491 1490 1490 1491 1490 1491 1493 1495 1497 1498 1499 1499 1500 1500 1500 1501 1503 1504 1505 1506 1506 1506 1506 1506 1509 1510 1512 1514 1515 1516 1517 1516 1516 1516 1517 1518 1518 1518 1519 1520 1521 1522 1524 1526 1528 1529 1530 1531 1532
1497 1497 1497 1495 1494 1494 1492 1492 1494 1494 1495 1496 1497 1498 1499 1499 1499 1500 1501 1502 1503 1504 1504 1505 1506 1506 1507 1509 1509 1511 1512 1514 1515 1515 1515 1515 1515 1516 1517 1518 1518 1518 1520 1521 1523 1524 1525 1528 1530 1531 1531 1532
1498 1498 1498 1497 1495 1495 1493 1493 1494 1493 1494 1496 1496 1497 1498 1499 1500 1500 1500 1501 1502 1503 1504 1505 1506 1507 1508 1509 1509 1510 1511 1512 1513 1513 1514 1513 1514 1515 1516 1517 1517 1518 1519 1521 1523 1524 1525 1527 1530 1531 1532 1532
1498 1498 1498 1497 1494 1493 1493 1493 1493 1493 1493 1495 1496 1496 1497 1498 1500 1500 1500 1501 1502 1503 1504 1505 1506 1507 1508 1509 1509 1510 1511 1512 1512 1513 1513 1513 1514 1514 1515 1516 1517 1518 1519 1520 1522 1524 1525 1526 1529 1531 1532 1533
1498 1498 1498 1497 1495 1494 1494 1494 1493 1493 1492 1493 1495 1495 1496 1497 1499 1500 1500 1501 1502 1503 1505 1505 1506 1507 1507 1508 1509 1509 1511 1511 1512 1513 1513 1513 1514 1514 1515 1515 1516 1518 1520 1521 1521 1523 1524 1526 1528 1530 1531 1533
1497 1497 1497 1497 1497 1495 1494 1493 1493 1492 1492 1493 1493 1494 1495 1495 1497 1499 1500 1501 1502 1503 1505 1506 1506 1506 1507 1507 1507 1508 1510 1510 1511 1512 1513 1513 1513 1514 1515 1516 1517 1518 1520 1520 1521 1522 1524 1525 1527 1529 1531 1532
1497 1496 1497 1497 1497 1497 1495 1494 1492 1491 1491 1491 1492 1493 1494 1494 1496 1498 1500 1501 1502 1503 1504 1506 1506 1506 1506 1506 1506 1507 1509 1509 1510 1511 1513 1513 1513 1513 1514 1516 1517 1518 1519 1520 1521 1522 1523 1524 1526 1528 1530 1531
1497 1496 1496 1496 1497 1496 1495 1493 1491 1489 1488 1489 1491 1492 1493 1494 1495 1496 1498 1499 1501 1502 1504 1505 1505 1505 1505 1505 1505 1506 1508 1509 1510 1511 1512 1513 1513 1513 1514 1515 1516 1518 1519 1520 1521 1522 1523 1524 1525 1527 1529 1530
1496 1495 1495 1495 1495 1494 1493 1493 1492 1488 1486 1488 1491 1491 1493 1494 1495 1495 1495 1496 1498 1499 1501 1503 1504 1505 1505 1505 1505 1506 1507 1508 1510 1511 1511 1512 1512 1513 1513 1514 1515 1517 1518 1519 1520 1521 1523 1524 1525 1526 1528 1529
1495 1494 1493 1493 1494 1494 1493 1492 1492 1490 1487 1487 1489 1491 1492 1494 1495 1495 1494 1494 1496 1497 1498 1501 1503 1503 1504 1504 1505 1505 1506 1507 1509 1510 1510 1511 1512 1513 1513 1514 1515 1516 1518 1519 1519 1520 1522 1523 1524 1525 1527 1528
1494 1493 1492 1492 1492 1493 1492 1491 1490 1490 1489 1488 1488 1489 1491 1492 1493 1494 1495 1495 1495 1496 1496 1499 1501 1502 1502 1503 1503 1504 1505 1506 1507 1509 1510 1510 1511 1512 1513 1513 1514 1516 1517 1518 1519 1520 1521 1522 1523 1525 1525 1526
1492 1491 1491 1490 1491 1491 1491 1491 1490 1490 1489 1487 1487 1487 1489 1491 1491 1492 1493 1495 1496 1496 1496 1498 1499 1500 1501 1501 1502 1503 1504 1505 1506 1507 1508 1510 1511 1512 1513 1513 1514 1515 1516 1517 1518 1519 1520 1521 1523 1524 1525 1525
1490 1490 1489 1489 1489 1489 1490 1490 1490 1490 1489 1488 1487 1487 1488 1489 1489 1491 1492 1493 1495 1496 1497 1497 1497 1497 1499 1499 1500 1501 1502 1504 1505 1506 1507 1509 1510 1511 1512 1513 1514 1514 1515 1516 1517 1518 1519 1520 1522 1523 1524 1524
1490 1489 1488 1488 1487 1488 1488 1488 1489 1489 1490 1490 1488 1487 1488 1487 1488 1491 1493 1493 1493 1494 1495 1495 1495 1496 1497 1498 1499 1500 1501 1502 1504 1504 1505 1507 1508 1509 1510 1511 1512 1513 1514 1515 1516 1517 1518 1519 1520 1521 1522 1523
1489 1488 1487 1487 1486 1486 1486 1486 1487 1488 1488 1489 1488 1488 1488 1488 1488 1491 1492 1492 1492 1492 1492 1493 1494 1495 1496 1496 1497 1499 1500 1501 1502 1503 1504 1505 1506 1507 1508 1509 1510 1511 1512 1513 1514 1515 1516 1517 1518 1519 1521 1522
1490 1488 1487 1486 1484 1484 1484 1484 1485 1486 1487 1487 1487 1488 1488 1488 1488 1489 1490 1490 1491 1491 1491 1491 1492 1493 1494 1494 1496 1497 1499 1499 1500 1501 1502 1503 1504 1505 1506 1507 1508 1509 1510 1511 1512 1513 1514 1515 1516 1517 1518 1519
1490 1488 1487 1486 1484 1484 1484 1483 1483 1483 1484 1484 1485 1486 1486 1486 1487 1487 1487 1488 1489 1490 1490 1490 1491 1492 1492 1492 1494 1495 1496 1498 1499 1500 1500 1501 1502 1503 1504 1506 1506 1507 1508 1509 1510 1511 1512 1513 1514 1515 1516 1517
1490 1489 1487 1486 1485 1485 1485 1483 1482 1481 1481 1482 1483 1483 1484 1484 1486 1486 1487 1487 1488 1488 1489 1489 1489 1489 1490 1491 1492 1493 1495 1496 1497 1498 1499 1499 1500 1501 1502 1504 1505 1506 1507 1507 1508 1509 1510 1511 1512 1513 1514 1515
1491 1490 1489 1487 1486 1485 1485 1484 1482 1481 1480 1480 1481 1482 1482 1482 1483 1484 1485 1486 1486 1487 1487 1487 1487 1488 1489 1489 1490 1492 1493 1494 1496 1496 1497 1498 1499 1500 1501 1502 1503 1504 1505 1506 1507 1508 1508 1509 1510 1511 1512 1513
1493 1491 1490 1489 1487 1486 1485 1483 1483 1483 1482 1480 1479 1480 1481 1481 1481 1481 1482 1483 1484 1485 1485 1485 1486 1486 1487 1487 1488 1489 1491 1492 1494 1495 1496 1497 1498 1499 1500 1501 1502 1502 1503 1504 1505 1506 1506 1507 1508 1509 1510 1510
1492 1491 1489 1488 1487 1485 1484 1484 1484 1484 1483 1481 1479 1479 1479 1479 1479 1479 1479 1480 1481 1482 1483 1483 1484 1484 1484 1485 1486 1487 1488 1490 1492 1493 1495 1496 1497 1498 1498 1499 1499 1500 1501 1501 1502 1503 1504 1504 1505 1506 1506 1507
1493 1491 1489 1489 1488 1487 1485 1485 1485 1484 1483 1481 1480 1480 1479 1478 1477 1477 1477 1477 1478 1478 1479 1480 1481 1482 1482 1483 1484 1485 1486 1487 1489 1490 1492 1494 1495 1495 1495 1496 1497 1498 1499 1499 1499 1501 1501 1502 1502 1502 1503 1504
1496 1494 1493 1492 1491 1491 1488 1486 1485 1483 1482 1481 1481 1480 1479 1477 1477 1476 1477 1476 1476 1475 1476 1476 1477 1479 1480 1480 1481 1482 1483 1484 1485 1486 1488 1490 1491 1491 1492 1493 1494 1495 1496 1496 1497 1499 1500 1499 1499 1500 1500 1500
1499 1497 1496 1495 1493 1492 1490 1489 1487 1485 1484 1482 1481 1480 1479 1478 1476 1476 1476 1476 1475 1474 1474 1474 1474 1475 1476 1478 1478 1479 1480 1481 1482 1483 1484 1486 1487 1488 1489 1490 1490 1491 1492 1493 1495 1498 1498 1497 1497 1497 1496 1496
1501 1500 1498 1496 1494 1493 1491 1489 1488 1486 1485 1483 1482 1480 1479 1478 1476 1475 1475 1476 1474 1473 1473 1472 1472 1472 1472 1473 1475 1477 1477 1478 1479 1480 1481 1482 1484 1485 1486 1486 1487 1488 1489 1490 1492 1494 1496 1497 1497 1493 1492 1493
1502 1500 1498 1496 1494 1491 1489 1487 1485 1483 1482 1481 1481 1481 1479 1478 1476 1475 1475 1475 1474 1472 1472 1472 1472 1471 1471 1470 1471 1473 1474 1475 1476 1477 1478 1479 1480 1481 1482 1483 1484 1485 1486 1487 1488 1490 1492 1494 1494 1491 1491 1493
1502 1500 1498 1495 1492 1489 1487 1485 1483 1481 1480 1480 1480 1481 1481 1479 1477 1476 1474 1474 1473 1471 1471 1471 1471 1471 1471 1470 1469 1470 1471 1472 1474 1474 1475 1476 1477 1478 1479 1480 1481 1481 1482 1483 1485 1486 1487 1489 1490 1490 1492 1492
1502 1500 1498 1495 1493 1491 1489 1488 1486 1485 1484 1482 1481 1481 1481 1481 1479 1477 1475 1473 1472 1471 1471 1471 1470 1470 1470 1469 1469 1468 1468 1469 1470 1472 1473 1474 1474 1475 1476 1477 1477 1477 1479 1480 1481 1482 1484 1485 1487 1489 1491 1491